Location: Chacón
(10.5789°N, 66.9317°W)
Time: 00:44:34
(UTC+00:00)

Cosmos 1939 Rocket - Pass Details

Date: 23 May 2024
Orbit: 515 x 557 km, 97.4° (Epoch: 15 June)

Event Time Altitude Azimuth Distance (km) Brightness Sun altitude
Rises 08:48:01 0° 11° (N) 2,727 6.9 -18.1°
Reaches altitude 10° 08:50:08 10° 12° (NNE) 1,835 6.0 -17.7°
Maximum altitude 08:54:07 88° 95° (E) 560 2.8 -16.8°
Enters shadow 08:57:28 14° 191° (S) 1,572 4.8 -16.0°
